This is the latest recevied weather packets stored in our database for station/object KM4KBD. If no packets are shown the sender has not sent any weather packets the latest 10 day(s).
| Time | Temp. | Humidity | Pressure | Rain* | Wind** | Luminosity | Snow |
|---|---|---|---|---|---|---|---|
| 1778014087 | 20.56° C | 59% | 1015.4 hPa | 0 mm | - | 83 W/m² | - |
| 1778013785 | 20.56° C | 59% | 1015.7 hPa | 0 mm | - | 88 W/m² | - |
| 1778013481 | 20.56° C | 58% | 1015.7 hPa | 0 mm | - | 94 W/m² | - |
| 1778013178 | 21.11° C | 57% | 1015.8 hPa | 0 mm | - | 95 W/m² | - |
| 1778012874 | 21.11° C | 55% | 1015.9 hPa | 0 mm | - | 81 W/m² | - |
| 1778012571 | 21.11° C | 56% | 1016 hPa | 0 mm | - | 148 W/m² | - |
| 1778012267 | 21.11° C | 55% | 1015.9 hPa | 0 mm | - | 207 W/m² | - |
| 1778011965 | 21.67° C | 55% | 1015.8 hPa | 0 mm | - | 181 W/m² | - |
| 1778011663 | 21.67° C | 54% | 1016.1 hPa | 0 mm | - | 138 W/m² | - |
| 1778011360 | 21.67° C | 54% | 1015.9 hPa | 0 mm | - | 139 W/m² | - |
| 1778011055 | 21.67° C | 54% | 1016 hPa | 0 mm | - | 185 W/m² | - |
| 1778010753 | 21.67° C | 54% | 1015.8 hPa | 0 mm | - | 207 W/m² | - |
| 1778010450 | 21.67° C | 55% | 1016.2 hPa | 0 mm | - | 180 W/m² | - |
| 1778010146 | 21.67° C | 55% | 1016.2 hPa | 0 mm | - | 182 W/m² | - |
| 1778009842 | 22.22° C | 58% | 1016.5 hPa | 0 mm | - | 215 W/m² | - |
| 1778009540 | 22.22° C | 55% | 1016.6 hPa | 0 mm | - | 286 W/m² | - |
| 1778009238 | 22.78° C | 54% | 1016.8 hPa | 0 mm | - | 758 W/m² | - |
| 1778008936 | 22.22° C | 57% | 1016.7 hPa | 0 mm | - | 402 W/m² | - |
| 1778008634 | 21.67° C | 55% | 1016.7 hPa | 0 mm | - | 393 W/m² | - |
| 1778008332 | 21.67° C | 57% | 1016.8 hPa | 0 mm | - | 295 W/m² | - |
| 1778008028 | 21.67° C | 55% | 1016.8 hPa | 0 mm | - | 268 W/m² | - |
| 1778007727 | 22.22° C | 55% | 1016.7 hPa | 0 mm | - | 267 W/m² | - |
| 1778007425 | 21.67° C | 56% | 1017 hPa | 0 mm | - | 323 W/m² | - |
| 1778007121 | 21.67° C | 55% | 1016.9 hPa | 0 mm | - | 342 W/m² | - |
| 1778006817 | 21.67° C | 55% | 1017 hPa | 0 mm | - | 317 W/m² | - |
* Rain latest hour (hover to see other rain measurements)
** Current wind speed in m/s (hover to see current wind gust speed)